sat.trackr.live / text

‹ back to catalog

X-SAT

NORAD 37389 · 2011-015C

PAYLOAD ACTIVE UNKNOWN

§ Identity

Operator
Country
SING
Launch date
2011-04-20
Launch site
SRILR
Launch vehicle
Mass (kg)
RCS (m²)
0.47

Purposes: science

External: N2YO · Heavens-Above · Gunter

§ Orbital elements

Epoch: 2026-09-20T05:06:17.958240Z

Period
101.04 min
Inclination
98.3640°
Eccentricity
0.0015284
Mean motion
14.25228938 rev/d
Perigee alt
796.7 km
Apogee alt
818.7 km
Semi-major
7,185.9 km
B*
1.3790e-5
RAAN
235.7626°
Arg perigee
65.4078°
Mean anomaly
294.8693°
Rev number
80,121

§ Raw data

X-SAT1 37389U 11015C   26263.21270785 -.00000009  00000+0  13790-4 0  99922 37389  98.3640 235.7626 0015284  65.4078 294.8693 14.25228938801210

JSON: /api/v1/satellites/37389 · /tle

For live sub-satellite position, see the globe view (requires WebGL).

§ Visibility from observer

Set your observer location to see the next 7 days of passes ≥ 10°. The values pass through the URL so the page stays shareable.

No JS? Fill the form by hand. The geolocation button needs JavaScript.